Location: Bailleul
(50.3375°N, 2.8513°E)
Time: 20:46:35
(UTC+00:00)

ATLAS 5 CENTAUR R/B - Pass Details

Date: 19 April 2021
Orbit: 516 x 1141 km, 63.3° (Epoch: 02 May)

Event Time Altitude Azimuth Distance (km) Brightness Sun altitude
Rises 22:29:07 0° 308° (NW) 2,963 6.0 -25.8°
Reaches altitude 10° 22:31:48 10° 325° (NW) 2,152 5.3 -26.0°
Maximum altitude 22:35:33 21° 14° (NNE) 1,663 4.3 -26.2°
Drops below altitude 10° 22:39:46 10° 63° (ENE) 2,464 4.7 -26.4°
Sets 22:43:06 0° 79° (ENE) 3,530 5.4 -26.6°
